This demonstration page uses our WeatherBlox Daily Observations layout. Learn more.

Left ArrowRight Arrow

30.21309, -93.2044

Hourly Observations for April 20, 2022

Temp ( °F °C ) Dew Point ( °F °C ) Humidity (%) Winds ( mph kmh ) Pressure ( in mb ) Visibility ( mi km ) Precip ( " mm )
12:15 am 00:15 Partly Cloudy 59 14.9 53 11.4 80 80 ESE 8 13 30.09 1019 10 16 0.00 0.00
12:35 am 00:35 Cloudy 60 15.7 53 11.7 77 77 SE 7 11 30.10 1019 10 16 0.00 0.00
12:55 am 00:55 Cloudy 61 16 54 12 77 77 SE 9 15 30.08 1019 10 16 0.00 0.00
1:15 am 01:15 Cloudy 61 16.2 54 12.2 77 77 ESE 7 11 30.09 1019 10 16 0.00 0.00
1:35 am 01:35 Cloudy 62 16.7 55 12.6 77 77 ESE 10 17 30.08 1019 10 16 0.00 0.00
1:55 am 01:55 Cloudy 62 16.8 55 12.8 77 77 ESE 8 13 30.08 1019 10 16 0.00 0.00
2:15 am 02:15 Cloudy 62 16.7 55 12.8 78 78 ESE 7 11 30.08 1019 10 16 0.00 0.00
2:35 am 02:35 Cloudy 62 16.8 55 13 78 78 ESE 7 11 30.07 1018 10 16 0.00 0.00
2:55 am 02:55 Cloudy 62 16.7 56 13.1 79 79 E 7 11 30.07 1018 10 16 0.00 0.00
3:15 am 03:15 Cloudy 62 16.4 56 13.1 81 81 E 6 9 30.07 1018 10 16 0.00 0.00
3:35 am 03:35 Cloudy 62 16.4 55 13 80 80 E 8 13 30.06 1018 10 16 0.00 0.00
3:55 am 03:55 Cloudy 62 16.4 55 12.5 78 78 ESE 8 13 30.06 1018 10 16 0.00 0.00
4:15 am 04:15 Cloudy 61 16.3 55 12.5 78 78 E 8 13 30.05 1018 10 16 0.00 0.00
4:35 am 04:35 Cloudy 61 16.3 55 12.8 80 80 E 8 13 30.06 1018 10 16 0.00 0.00
4:55 am 04:55 Mostly Cloudy 61 16.3 55 13 81 81 ESE 8 13 30.06 1018 10 16 0.00 0.00
5:15 am 05:15 Mostly Cloudy 62 16.5 56 13.2 81 81 E 7 11 30.06 1018 10 16 0.00 0.00
5:35 am 05:35 Mostly Cloudy 62 16.5 56 13.4 82 82 ESE 7 11 30.05 1018 10 16 0.00 0.00
5:50 am 05:50 Mostly Cloudy 63 17 55 13 77 77 E 6 9 30.06 1018 10 16 0.00 0.00
6:55 am 06:55 Cloudy 63 17 55 13 77 77 E 8 13 30.06 1018 10 16 0.00 0.00
7:55 am 07:55 Cloudy 63 17 57 14 83 83 E 8 13 30.06 1018 10 16 0.00 0.00
8:50 am 08:50 Cloudy 66 19 61 16 83 83 ESE 9 15 30.06 1018 10 16 0.00 0.00
9:50 am 09:50 Mostly Cloudy 72 22 64 18 78 78 SSE 17 28 30.05 1018 10 16 0.00 0.00
10:50 am 10:50 Cloudy 75 24 64 18 69 69 SSE 18 30 30.07 1018 10 16 0.00 0.00
11:45 am 11:45 Cloudy 79 26 64 18 61 61 S 21 33 30.06 1018 10 16 0.00 0.00
12:50 pm 12:50 Cloudy 79 26 64 18 61 61 SSE 29 46 30.05 1018 10 16 0.00 0.00
1:50 pm 13:50 Cloudy 79 26 64 18 61 61 SSE 24 39 30.03 1017 10 16 0.00 0.00
2:50 pm 14:50 Cloudy 81 27 64 18 58 58 SSE 29 46 30.01 1016 10 16 0.00 0.00
3:49 pm 15:49 Mostly Cloudy 79 26 64 18 61 61 S 21 33 30.02 1017 10 16 0.00 0.00
4:59 pm 16:59 Mostly Cloudy 77 25 64 18 65 65 SSE 22 35 30.03 1017 10 16 0.00 0.00
5:52 pm 17:52 Mostly Cloudy 75 24 64 18 69 69 SSE 23 37 30.03 1017 10 16 0.00 0.00
6:48 pm 18:48 Mostly Cloudy 73 23 64 18 74 74 SSE 16 26 30.04 1017 10 16 0.00 0.00
7:45 pm 19:45 Cloudy 73 23 64 18 74 74 SSE 15 24 30.04 1017 10 16 0.00 0.00
8:54 pm 20:54 Mostly Cloudy 70 21 82 28 100 100 SE 10 17 30.05 1018 10 16 0.00 0.00
9:55 pm 21:55 Cloudy 72 22 66 19 83 83 SE 7 11 30.08 1019 10 16 0.00 0.00
10:15 pm 22:15 Cloudy 71 21.4 66 18.8 85 85 SE 9 15 30.09 1019 10 16 0.00 0.00
10:35 pm 22:35 Cloudy 71 21.4 66 18.9 86 86 SE 9 15 30.09 1019 10 16 0.00 0.00
10:55 pm 22:55 Cloudy 71 21.4 66 18.9 86 86 SE 9 15 30.10 1019 10 16 0.00 0.00
11:15 pm 23:15 Cloudy 70 21.3 66 19 87 87 SE 9 15 30.10 1019 10 16 0.00 0.00
11:35 pm 23:35 Cloudy 70 21.2 66 19 87 87 SE 9 15 30.10 1019 10 16 0.00 0.00
11:55 pm 23:55 Cloudy 69 20.5 66 18.7 89 89 ESE 8 13 30.10 1019 10 16 0.00 0.00

Powered by AerisWeather